Location: Geography Hall
(41.1195°N, 80.5706°W)
Time: 00:25:59
(UTC+00:00)

Cosmos 2227 Rocket - Pass Details

Date: 29 October 2020
Orbit: 838 x 845 km, 71.0° (Epoch: 02 December)

Event Time Altitude Azimuth Distance (km) Brightness Sun altitude
Rises 23:40:36 0° 334° (NNW) 3,405 5.6 -15.5°
Reaches altitude 10° 23:43:04 10° 333° (NNW) 2,468 4.9 -16.0°
Maximum altitude 23:48:43 76° 249° (WSW) 873 2.4 -17.0°
Drops below altitude 10° 23:54:20 10° 165° (SSE) 2,456 4.5 -18.1°
Sets 23:56:46 0° 163° (SSE) 3,388 5.2 -18.6°
